This is the latest recevied weather packets stored in our database for station/object SV6LWW-11. If no packets are shown the sender has not sent any weather packets the latest 10 day(s).
| Time | Temp. | Humidity | Pressure | Rain* | Wind** | Luminosity | Snow |
|---|---|---|---|---|---|---|---|
| 1777670056 | 21.11° C | 49% | 1025.1 hPa | - | - | - | - |
| 1777669156 | 21.11° C | 49% | 1025.3 hPa | - | - | - | - |
| 1777668256 | 21.11° C | 48% | 1025.2 hPa | - | - | - | - |
| 1777667356 | 21.67° C | 48% | 1025.3 hPa | - | - | - | - |
| 1777666455 | 21.67° C | 47% | 1025.2 hPa | - | - | - | - |
| 1777665555 | 21.67° C | 46% | 1025 hPa | - | - | - | - |
| 1777664655 | 22.22° C | 46% | 1025.2 hPa | - | - | - | - |
| 1777663755 | 22.22° C | 47% | 1024.9 hPa | - | - | - | - |
| 1777662855 | 21.67° C | 47% | 1024.6 hPa | - | - | - | - |
| 1777661955 | 21.67° C | 47% | 1024.3 hPa | - | - | - | - |
| 1777661055 | 21.67° C | 48% | 1023.9 hPa | - | - | - | - |
| 1777660155 | 21.67° C | 48% | 1024 hPa | - | - | - | - |
| 1777659254 | 21.67° C | 48% | 1023.9 hPa | - | - | - | - |
| 1777658354 | 21.11° C | 49% | 1024.2 hPa | - | - | - | - |
| 1777657454 | 21.11° C | 50% | 1023.9 hPa | - | - | - | - |
| 1777656554 | 20.56° C | 50% | 1024.1 hPa | - | - | - | - |
| 1777655654 | 20° C | 52% | 1024.1 hPa | - | - | - | - |
| 1777654754 | 20° C | 53% | 1024.2 hPa | - | - | - | - |
| 1777653853 | 20° C | 54% | 1024.3 hPa | - | - | - | - |
| 1777652953 | 20° C | 54% | 1024.2 hPa | - | - | - | - |
| 1777652056 | 20° C | 53% | 1024.3 hPa | - | - | - | - |
| 1777651156 | 20° C | 54% | 1024.4 hPa | - | - | - | - |
| 1777650255 | 20° C | 55% | 1024.3 hPa | - | - | - | - |
| 1777649355 | 20° C | 55% | 1024.2 hPa | - | - | - | - |
| 1777648455 | 20° C | 55% | 1024.1 hPa | - | - | - | - |
* Rain since midnight (hover to see other rain measurements)
** Current wind speed in m/s (hover to see current wind gust speed)